Simultaneous Nadir Overpasses (SNOs) Predictions

Prediction of SNOs between GOES-16 and TERRA Satellite Orbit:

Table of predicted SNOs for the next 14.0 days since TLE Epoch: 9/5/2020
Index Date Time (GOES-16) GOES-16 Lat,Lon TERRA Lat,Lon Distance(km) Time Diff (sec)
1 09/06/2020 15:32:41 0.02, -75.17 0.04, -75.24 7.32 80
2 09/08/2020 15:17:50 0.02, -75.16 -0.62, -72.29 327.62 80
3 09/09/2020 03:41:54 -0.03, -75.14 -0.50, -77.47 264.64 80
4 09/11/2020 03:27:02 -0.03, -75.13 0.11, -74.51 70.55 80
5 09/13/2020 03:14:50 -0.03, -75.12 0.72, -71.55 405.97 80
6 09/13/2020 15:38:46 0.04, -75.14 0.35, -76.71 178.68 80
7 09/15/2020 15:23:54 0.04, -75.13 -0.26, -73.75 157.30 80
8 09/16/2020 03:47:57 -0.05, -75.12 -0.85, -78.94 434.45 80
9 09/17/2020 15:11:42 0.03, -75.14 -0.88, -70.79 493.80 80
10 09/18/2020 03:35:46 -0.04, -75.12 -0.23, -75.98 97.79 80
